sat.trackr.live / text

‹ back to catalog

STARLINK-6376

NORAD 57349 · 2023-099X

PAYLOAD ACTIVE UNKNOWN

§ Identity

Operator
Country
US
Launch date
2023-07-16
Launch site
AFETR
Launch vehicle
Mass (kg)
RCS (m²)

Purposes: comms

External: N2YO · Heavens-Above · Gunter

§ Orbital elements

Epoch: 2026-09-20T06:02:48.117984Z

Period
94.27 min
Inclination
43.0021°
Eccentricity
0.0001479
Mean motion
15.27578834 rev/d
Perigee alt
482.0 km
Apogee alt
484.1 km
Semi-major
6,861.2 km
B*
2.7190e-5
RAAN
230.0825°
Arg perigee
263.3101°
Mean anomaly
96.7583°
Rev number
17,659

§ Raw data

STARLINK-63761 57349U 23099X   26263.25194581  .00000486  00000+0  27190-4 0  99952 57349  43.0021 230.0825 0001479 263.3101  96.7583 15.27578834176593

JSON: /api/v1/satellites/57349 · /tle

For live sub-satellite position, see the globe view (requires WebGL).

§ Visibility from observer

Set your observer location to see the next 7 days of passes ≥ 10°. The values pass through the URL so the page stays shareable.

No JS? Fill the form by hand. The geolocation button needs JavaScript.